Orbital Elements at Epoch 2459000.5 (2020-May-31.0) TDB
Reference: JPL 14 (heliocentric ecliptic J2000)
Element | Value | Uncertainty (1-sigma) | Units |
e | .1503073282845211 | 5.7091e-08 | |
a | 2.644501105990241 | 3.0657e-08 | au |
q | 2.247013210103387 | 1.5158e-07 | au |
i | 7.594362709106169 | 7.6171e-06 | deg |
node | 202.4311774292209 | 4.0699e-05 | deg |
peri | 41.42227882898167 | 4.8165e-05 | deg |
M | 194.4791875059591 | 3.1487e-05 | deg |
tp | 2459722.711110069844 (2022-May-23.21111007) | 0.00014586 | TDB |
period | 1570.775274163812 4.30 | 2.7315e-05 7.478e-08 | d yr |
n | .2291861897250979 | 3.9854e-09 | deg/d |
Q | 3.041989001877095 | 3.5265e-08 | au |
|
| | Orbit Determination Parameters
Additional Information
|